Alamosa, CO

2:47 PM MST on January 17, 2017 (GMT -0700)
San Luis Valley Regional / Bergman Field

Weather History for KALS - October, 2014

Change the Weather History Date:

Friday, October 31, 2014

  Actual Average Record
Temperature  
Mean Temperature 42 °F 37 °F  
Max Temperature 64 °F 55 °F 70 °F (1945)
Min Temperature 19 °F 19 °F -9 °F (1991)
Degree Days  
Heating Degree Days 23 28  
Month to date heating degree days 556 678  
Since 1 July heating degree days 856 1110  
Cooling Degree Days 0 0  
Month to date cooling degree days 0 0  
Year to date cooling degree days 60 51  
Moisture  
Dew Point 22 °F    
Average Humidity 47    
Maximum Humidity 73    
Minimum Humidity 20    
Precipitation  
Precipitation 0.00 in 0.02 in 0.76 in (1985)
Month to date precipitation 0.70 0.68  
Year to date precipitation 4.99 6.54  
Snow  
Snow 0.00 in 0.10 in 10.90 in (1972)
Month to date snowfall T 2.1  
Since 1 July snowfall T 2.1  
Since 1 September snowfall T 2.1  
Snow Depth 0.00 in    
Sea Level Pressure  
Sea Level Pressure 30.26 in    
Wind  
Wind Speed 8 mph (South)    
Max Wind Speed 22 mph    
Max Gust Speed 28 mph    
Visibility 10 miles    
Events      
T = Trace of Precipitation, MM = Missing Value Source: NWS Daily Summary

Daily Weather History Graph

Daily Weather History Graph

Search for Another Location

Airport or City:

Trip Planner

Search our weather history database for the weather conditions in past years. The results will help you decide how hot, cold, wet, or windy it might be!

Date:

Astronomy

Oct. 31, 2014 Rise Set
Actual Time 7:27 AM MDT 6:06 PM MDT
Civil Twilight 7:00 AM MDT 6:33 PM MDT
Nautical Twilight 6:29 AM MDT 7:04 PM MDT
Astronomical Twilight 5:59 AM MDT 7:34 PM MDT
Moon 2:14 PM MDT (10/31) 12:27 AM MDT (10/31)
Length of Visible Light 11h 33m
Length of Day
10h 39m
First Quarter, 57% of the Moon is Illuminated
Oct 31
First Quarter
Nov 6
Full
Nov 14
Last Quarter
Nov 22
New
Nov 29
First Quarter

Hourly Weather History & Observations

Time (MDT) Temp. Windchill Dew Point Humidity Pressure Visibility Wind Dir Wind Speed Gust Speed Precip Events Conditions
12:52 AM 33.1 °F 26.9 °F 17.1 °F 52% 30.28 in 10.0 mi SSE 6.9 mph - N/A   Clear
1:52 AM 30.9 °F 25.2 °F 17.1 °F 57% 30.27 in 10.0 mi South 5.8 mph - N/A   Clear
2:52 AM 28.9 °F 23.9 °F 17.1 °F 61% 30.26 in 10.0 mi South 4.6 mph - N/A   Clear
3:52 AM 21.9 °F - 14.0 °F 72% 30.30 in 10.0 mi Calm Calm - N/A   Clear
4:52 AM 21.9 °F 15.7 °F 14.0 °F 72% 30.31 in 10.0 mi SSE 4.6 mph - N/A   Clear
5:52 AM 21.0 °F - 12.9 °F 71% 30.35 in 10.0 mi Calm Calm - N/A   Clear
6:52 AM 19.9 °F - 12.9 °F 74% 30.40 in 10.0 mi Calm Calm - N/A   Clear
7:52 AM 25.0 °F - 16.0 °F 69% 30.43 in 10.0 mi Calm Calm - N/A   Clear
8:52 AM 34.0 °F - 21.0 °F 59% 30.40 in 10.0 mi Calm Calm - N/A   Clear
9:52 AM 41.0 °F 38.0 °F 21.0 °F 45% 30.37 in 10.0 mi WSW 4.6 mph - N/A   Clear
10:52 AM 46.9 °F - 21.9 °F 37% 30.34 in 10.0 mi WSW 5.8 mph - N/A   Clear
11:52 AM 53.1 °F - 21.9 °F 30% 30.30 in 10.0 mi Calm Calm - N/A   Clear
12:52 PM 57.0 °F - 23.0 °F 27% 30.23 in 10.0 mi Variable 4.6 mph - N/A   Clear
1:52 PM 62.1 °F - 21.0 °F 21% 30.16 in 10.0 mi SSE 6.9 mph 17.3 mph N/A   Clear
2:52 PM 62.6 °F - 23.0 °F 22% 30.26 in 10.0 mi SE 16.1 mph 21.9 mph N/A   Clear
3:52 PM 60.1 °F - 25.0 °F 26% 30.17 in 9.0 mi South 17.3 mph 26.5 mph N/A   Clear
4:52 PM 57.0 °F - 27.0 °F 32% 30.19 in 9.0 mi South 17.3 mph 27.6 mph N/A   Partly Cloudy
5:52 PM 55.9 °F - 27.0 °F 33% 30.18 in 10.0 mi SSE 11.5 mph - N/A   Clear
6:52 PM 53.1 °F - 26.1 °F 35% 30.19 in 10.0 mi South 17.3 mph 23.0 mph N/A   Clear
7:52 PM 51.1 °F - 27.0 °F 39% 30.19 in 10.0 mi South 17.3 mph - N/A   Clear
8:52 PM 48.9 °F - 27.0 °F 43% 30.16 in 10.0 mi South 16.1 mph - N/A   Clear
9:52 PM 46.9 °F - 27.0 °F 46% 30.16 in 10.0 mi South 17.3 mph - N/A   Clear
10:52 PM 44.1 °F 38.6 °F 27.0 °F 51% 30.16 in 10.0 mi South 10.4 mph - N/A   Partly Cloudy
11:52 PM 46.0 °F 41.0 °F 28.0 °F 50% 30.10 in 10.0 mi South 10.4 mph - N/A   Mostly Cloudy